Location: Unspecified
(0.0000°N, 0.0000°E)
Time: 03:44:21
(UTC+02:00)

GPS 2-12 Rocket1 - Visible Passes

Search period start: 28 September 2016 00:00
Search period end: 08 October 2016 00:00
Orbit: 587 x 654 km, 20.0° (Epoch: 26 September)

Date Brightness Start Highest point End Pass type
(mag) Time Alt. Az. Time Alt. Az. Time Alt. Az.
28 Sep 5.9 05:24:44 14° SE 05:24:44 14° SE 05:25:28 10° SE visible
28 Sep 5.0 07:01:46 11° WSW 07:04:37 18° SSW 07:07:53 10° SSE visible
29 Sep 5.5 05:40:13 17° SSE 05:40:13 17° SSE 05:41:28 10° SE visible
29 Sep 5.4 07:19:24 10° SW 07:21:16 12° SSW 07:23:08 10° S visible
30 Sep 5.3 05:55:39 16° SSE 05:55:39 16° SSE 05:57:14 10° SSE visible
01 Oct 5.4 06:11:03 12° S 06:11:03 12° S 06:12:34 10° SSE visible
05 Oct 5.4 21:09:56 10° N 21:10:33 10° N 21:10:33 10° N visible
06 Oct 5.2 21:24:39 10° NNW 21:26:02 14° N 21:26:02 14° N visible
07 Oct 5.2 21:40:14 10° NW 21:41:35 16° NNW 21:41:35 16° NNW visible
